Location: Unspecified
(50.7693°N, 0.0000°E)
Time: 22:25:11
(UTC+00:00)

Vanguard 1 Rocket - Pass Details

Date: 24 June 2019
Orbit: 650 x 4226 km, 34.3° (Epoch: 12 October)

Event Time Altitude Azimuth Distance (km) Brightness Sun altitude
Rises 17:30:54 0° 239° (WSW) 7,688 12.9 22.8°
Reaches altitude 10° 17:37:26 10° 233° (SW) 6,134 12.3 21.8°
Maximum altitude 17:51:34 33° 178° (S) 3,115 10.2 19.6°
Drops below altitude 10° 17:59:48 10° 118° (ESE) 3,553 9.9 18.3°
Sets 18:02:28 0° 108° (ESE) 4,184 10.2 17.9°
